[TLELIST] Archives

 

Current TLEs

February 20th 2008 PST

HST 1 20580U 90037B 08048.34445164 +.00000352 +00000-0 +14403-4 0 00756 2 20580 028.4685 031.3667 0004142 180.3703 179.6885 15.00338082776812 ISS (ZARYA) 1 25544U 98067A 08050.30423611 .00065680 00000-0 38944-3 0 9506 2 25544 051.6422 269.2075 0008039 053.4715 284.1630 15.77378316529769 CXO 1 25867U 99040B 08051.20833333 .00000082 00000-0 10000-3 0 1704 2 25867 063.1811 083.4954 6626362 280.3673 356.1818 00.37804343 3189 ____________________________________________________________________ These 2-Line ...Continue Reading

Current TLEs

February 19th 2008 PST

HST 1 20580U 90037B 08047.41316078 +.00000356 +00000-0 +14723-4 0 00810 2 20580 028.4684 037.4401 0004146 171.3598 188.7065 15.00337759776675 ISS (ZARYA) 1 25544U 98067A 08049.24997905 .00003243 00000-0 23318-4 0 9427 2 25544 051.6399 274.6487 0008045 051.8411 055.3451 15.77226094529608 CXO 1 25867U 99040B 08048.58333333 .00000045 00000-0 10000-3 0 1693 2 25867 063.1771 083.5622 6619557 280.4294 358.7652 00.37798269 3177 ____________________________________________________________________ These 2-Line ...Continue Reading

Current TLEs

February 18th 2008 PST

HST 1 20580U 90037B 08048.27793091 .00000346 00000-0 13967-4 0 749 2 20580 028.4685 031.8008 0004142 179.9170 180.1421 15.00338011776802 ISS (ZARYA) 1 25544U 98067A 08048.40539352 .00028607 00000-0 17361-3 0 9366 2 25544 051.6401 279.0087 0008281 047.5631 300.8360 15.77243425529463 CXO 1 25867U 99040B 08048.58333333 .00000045 00000-0 10000-3 0 1693 2 25867 063.1771 083.5622 6619557 280.4294 358.7652 00.37798269 3177 ____________________________________________________________________ These 2-Line ...Continue Reading

Current TLEs

February 17th 2008 PST

HST 1 20580U 90037B 08047.21359843 .00000340 00000-0 13458-4 0 733 2 20580 028.4685 038.7422 0004145 170.1477 189.9191 15.00337560776645 ISS (ZARYA) 1 25544U 98067A 08047.39157407 .00015162 00000-0 90117-4 0 9284 2 25544 051.6382 284.2354 0005642 051.6209 295.9478 15.78232161529304 CXO 1 25867U 99040B 08045.91666667 .00000098 00000-0 10000-3 0 1683 2 25867 063.1640 083.6275 6616652 280.4979 355.6529 00.37801811 3166 ____________________________________________________________________ These 2-Line ...Continue Reading

Current TLEs

February 16th 2008 PST

HST 1 20580U 90037B 08044.28668243 +.00000348 +00000-0 +14130-4 0 00729 2 20580 028.4686 057.8271 0004129 139.9962 220.0932 15.00336558776202 ISS (ZARYA) 1 25544U 98067A 08046.27220028 .00051926 00000-0 29806-3 0 9239 2 25544 051.6410 290.0208 0005704 047.6073 055.8690 15.78224218529136 CXO 1 25867U 99040B 08045.91666667 .00000098 00000-0 10000-3 0 1683 2 25867 063.1640 083.6275 6616652 280.4979 355.6529 00.37801811 3166 ____________________________________________________________________ These 2-Line ...Continue Reading

Current TLEs

February 15th 2008 PST

HST 1 20580U 90037B 08043.48843226 +.00000349 +00000-0 +14197-4 0 00810 2 20580 028.4684 063.0323 0004112 131.0169 229.0776 15.00336240776080 ISS (ZARYA) 1 25544U 98067A 08045.25817249 .00038404 00000-0 22120-3 0 9185 2 25544 051.6379 295.2636 0005211 044.3653 053.9408 15.78287400528972 CXO 1 25867U 99040B 08045.91666667 .00000098 00000-0 10000-3 0 1683 2 25867 063.1640 083.6275 6616652 280.4979 355.6529 00.37801811 3166 ____________________________________________________________________ These 2-Line ...Continue Reading

Current TLEs

February 14th 2008 PST

HST 1 20580U 90037B 08043.22234860 .00000338 00000-0 13331-4 0 705 2 20580 028.4683 064.7676 0004071 129.0086 231.0863 15.00336042776043 ISS (ZARYA) 1 25544U 98067A 08044.41480324 -.00129502 00000-0 -74701-3 0 9119 2 25544 051.6423 299.6187 0004959 039.8674 303.3933 15.78179120528830 CXO 1 25867U 99040B 08043.29166667 .00000223 00000-0 10000-3 0 1676 2 25867 063.1425 083.7240 6615700 280.5136 358.3102 00.37808346 3155 ____________________________________________________________________ These 2-Line ...Continue Reading

Current TLEs

February 13th 2008 PST

HST 1 20580U 90037B 08043.22234860 .00000338 00000-0 13331-4 0 705 2 20580 028.4683 064.7676 0004071 129.0086 231.0863 15.00336042776043 ISS (ZARYA) 1 25544U 98067A 08043.29546493 .00024073 00000-0 14011-3 0 9072 2 25544 051.6407 305.4006 0005685 036.9666 062.1925 15.78318712528668 CXO 1 25867U 99040B 08043.29166667 .00000223 00000-0 10000-3 0 1676 2 25867 063.1425 083.7240 6615700 280.5136 358.3102 00.37808346 3155 ____________________________________________________________________ These 2-Line ...Continue Reading

Current TLEs

February 12th 2008 PST

HST 1 20580U 90037B 08040.49499030 +.00000344 +00000-0 +13789-4 0 00774 2 20580 028.4682 082.5534 0003934 101.4155 258.6878 15.00335080775637 ISS (ZARYA) 1 25544U 98067A 08042.34663315 .00024885 00000-0 14497-3 0 9002 2 25544 051.6408 310.3058 0005707 034.4151 069.9746 15.78275751528513 CXO 1 25867U 99040B 08043.29166667 .00000223 00000-0 10000-3 0 1676 2 25867 063.1425 083.7240 6615700 280.5136 358.3102 00.37808346 3155 ____________________________________________________________________ These 2-Line ...Continue Reading

Current TLEs

February 11th 2008 PST

HST 1 20580U 90037B 08039.56369622 +.00000366 +00000-0 +15494-4 0 00794 2 20580 028.4680 088.6293 0003824 093.9601 266.1426 15.00334881775498 ISS (ZARYA) 1 25544U 98067A 08041.33267635 .00026469 00000-0 15424-3 0 8959 2 25544 051.6400 315.5459 0005853 030.0718 069.4279 15.78228663528358 CXO 1 25867U 99040B 08040.66666667 .00000286 00000-0 10000-3 0 1667 2 25867 063.1222 083.8111 6612587 280.5043 001.0386 00.37808355 3140 ____________________________________________________________________ These 2-Line ...Continue Reading
  • This mailing list is a public mailing list - anyone may join or leave, at any time.
  • This mailing list is announce-only.

International Space Station (ISS) / Hubble Space Telescope (HST) / Chandra X-Ray Observatory Orbital Data via EMAIL

Privacy Policy:

Private list